Theta_e
321 320 320 320 322 323 325 329 335 332 328 330 333 333 328 323 321 320 318 318 319 318 315 317 316 317 318 320 322 320 320 329 333 324 320 309 297 301 303 301 303 302 303 302 301 300 298 301 304 304 305 305 306 305 304 304 304 304 304 305 305 305 305 305 305 305 305 305 304 304 304 303 304 304 303 303 303 304 304 305 305 305 306 306 307 307 307 307 307 307 307 307 307 308 307 307 307
320 319 318 320 321 322 327 331 338 331 327 329 329 334 328 319 320 327 328 323 321 313 312 316 316 315 314 314 313 314 317 315 313 310 304 298 298 302 300 301 303 302 302 300 298 295 295 300 304 305 306 305 305 303 303 303 303 303 303 304 304 305 304 304 304 304 304 304 304 304 304 303 303 303 303 302 303 303 303 304 304 304 305 305 306 306 306 306 306 306 306 306 307 307 307 307 306
318 318 318 320 320 323 329 328 336 330 324 328 331 333 322 322 329 331 329 320 315 310 313 313 313 313 310 312 309 313 319 308 302 301 296 296 300 301 299 301 302 301 300 297 295 293 294 301 305 306 304 303 302 301 301 302 302 302 303 302 303 304 304 304 304 304 303 304 304 304 304 304 303 303 303 302 302 303 303 303 303 304 304 304 304 305 305 305 305 305 305 305 306 306 306 306 305
317 319 318 320 321 326 336 327 334 331 324 329 330 332 327 333 332 323 320 314 310 310 312 310 310 308 306 312 309 309 315 309 301 300 298 297 301 301 299 300 301 299 297 294 293 292 296 302 304 302 301 300 299 299 300 301 302 302 302 302 303 303 304 304 303 303 303 303 303 304 304 303 303 303 303 302 302 302 302 302 302 303 303 303 303 304 304 304 304 304 304 304 305 305 305 305 304
317 319 315 320 323 326 330 321 326 327 324 330 328 331 334 334 328 321 315 312 311 311 313 310 309 305 304 309 310 311 311 308 301 298 299 300 301 300 298 300 299 297 295 293 293 293 295 301 301 299 300 298 299 300 301 302 302 302 303 303 303 302 303 303 303 303 303 303 302 303 303 303 303 303 303 302 302 302 302 302 302 302 302 303 303 303 303 304 303 303 303 304 304 304 305 304 303
317 317 314 316 316 317 322 319 322 326 325 328 328 332 331 327 324 321 312 310 312 312 313 310 308 306 306 308 308 310 307 306 302 299 300 301 301 299 299 298 297 296 294 293 293 293 294 299 299 299 300 299 301 302 302 302 302 302 302 302 303 303 302 302 302 302 302 302 302 302 302 302 302 302 302 302 302 302 301 301 301 301 301 302 302 302 302 303 302 302 302 303 304 303 304 303 302
316 317 319 318 315 317 324 322 325 328 324 321 327 330 326 324 319 318 314 311 313 311 310 311 309 307 308 306 304 304 302 303 301 301 301 302 301 299 299 298 298 297 294 293 293 293 294 298 300 300 301 301 302 302 302 301 301 301 301 301 302 302 302 302 302 302 301 301 301 301 301 301 301 302 302 302 301 301 301 301 301 301 301 301 301 302 302 302 301 301 302 302 303 303 303 302 301
316 318 321 325 321 320 323 319 323 325 319 317 321 323 324 324 317 319 319 314 313 311 309 313 309 308 310 303 306 304 299 302 300 302 301 301 301 299 299 298 299 297 294 293 292 293 293 298 302 302 302 302 302 302 301 300 299 299 299 299 299 301 302 301 301 300 300 300 300 300 300 300 301 301 301 301 300 300 301 301 301 301 301 300 300 301 301 302 301 301 301 301 302 302 302 301 300
314 315 319 323 319 320 326 319 317 319 318 318 319 322 322 319 314 319 322 314 312 313 312 315 311 308 310 304 309 305 299 303 300 301 301 301 301 299 299 298 299 297 294 293 293 294 293 299 304 304 303 303 303 302 300 298 297 296 295 295 295 296 298 299 299 298 297 296 296 298 298 298 299 299 300 300 300 300 299 300 300 300 300 300 300 301 301 301 301 301 300 300 301 301 301 300 299
315 316 319 321 319 319 323 320 319 319 318 320 319 324 324 316 312 316 321 317 312 314 311 309 308 307 307 306 310 303 299 302 300 301 300 300 300 299 300 298 299 296 293 294 293 294 293 298 304 305 304 303 303 302 299 296 294 293 293 292 292 293 293 296 296 294 293 293 293 295 295 294 295 296 298 299 298 298 298 298 299 300 300 300 300 300 300 300 300 300 300 300 300 300 300 299 299
321 322 321 318 319 317 318 321 324 324 320 319 321 323 321 313 314 317 317 316 312 312 309 306 309 310 306 308 312 302 297 300 300 301 300 300 300 299 299 298 298 295 294 294 293 293 294 297 303 305 304 304 303 301 299 296 293 293 293 292 292 292 292 293 294 292 292 292 292 292 292 291 292 293 295 296 295 294 294 295 297 300 300 300 300 299 299 300 300 300 299 299 299 299 299 299 298
320 325 329 323 320 318 319 322 325 329 325 321 324 321 314 311 315 320 318 316 313 311 311 309 310 311 307 310 312 299 296 300 300 301 300 300 299 298 298 298 297 295 294 294 293 293 294 296 301 304 304 304 303 300 299 297 294 293 293 293 293 292 292 292 292 292 292 292 291 291 291 290 290 291 292 293 292 291 291 291 293 297 299 300 299 299 299 299 299 299 299 299 299 298 298 298 297
324 326 330 322 320 319 317 320 324 326 329 326 322 316 311 313 317 320 320 314 312 313 313 310 305 305 307 310 307 299 298 300 300 300 300 299 298 298 297 297 296 295 294 293 293 292 293 295 299 302 304 304 302 299 297 296 295 293 293 293 293 292 292 292 292 292 292 292 291 291 291 291 290 290 290 290 290 290 290 289 290 294 297 299 299 299 299 298 298 298 298 298 298 298 298 297 296
326 328 326 318 316 320 318 318 321 319 323 325 317 312 310 315 318 316 316 315 313 312 309 305 303 304 306 307 308 307 302 299 299 299 299 299 297 297 296 296 295 294 294 293 293 292 292 293 296 299 301 301 301 298 295 294 293 293 293 292 292 292 292 292 292 292 292 292 292 291 291 291 291 290 290 290 290 289 289 289 289 292 295 297 297 297 296 297 298 298 298 298 297 297 297 296 295
318 329 328 319 314 317 319 314 318 320 321 320 312 312 312 313 315 313 312 315 314 306 302 302 301 305 306 305 309 308 301 298 299 299 298 297 296 296 295 295 294 293 293 293 293 293 292 292 293 295 297 298 297 296 294 293 293 292 292 292 292 292 292 292 292 292 292 292 292 292 291 291 291 290 290 290 290 289 289 289 289 290 293 294 293 293 292 292 294 295 296 297 297 297 296 295 293
317 330 324 317 316 314 317 313 314 319 320 317 308 310 317 313 312 312 309 308 309 302 301 306 301 302 305 304 302 299 297 298 298 298 296 295 294 294 294 294 293 293 293 293 293 292 293 292 292 293 294 294 294 294 293 293 292 292 292 292 292 292 292 292 292 292 292 292 292 292 292 291 291 291 290 290 290 290 289 289 289 289 291 292 291 289 288 289 290 291 293 294 295 295 294 293 291
317 324 319 316 318 316 318 315 314 318 319 314 306 309 321 317 308 305 302 302 307 304 303 307 301 299 302 300 297 295 296 297 297 296 294 293 293 293 293 293 293 293 293 293 293 293 292 292 292 292 292 293 293 292 292 293 292 292 292 292 292 292 292 292 292 292 292 292 292 292 292 292 291 291 291 290 290 290 289 289 289 288 289 289 289 288 287 287 287 288 288 289 290 290 290 289 288
317 318 316 314 318 319 320 316 314 316 314 311 309 310 317 318 309 302 301 302 305 303 303 305 302 299 296 295 296 295 295 296 296 295 293 292 292 292 292 292 292 293 293 293 293 293 292 292 292 292 292 292 292 292 293 293 293 293 293 293 293 293 292 292 292 292 292 292 292 292 292 292 292 291 291 291 290 290 290 289 289 288 288 288 288 288 287 287 287 287 286 286 286 286 286 286 286
321 318 313 318 325 320 315 313 312 310 309 311 310 308 312 316 309 303 304 307 304 303 305 304 304 302 297 294 294 294 294 295 295 294 293 292 292 292 292 292 292 292 293 293 293 293 293 292 293 293 293 293 293 293 293 293 293 293 293 293 293 293 293 293 292 292 292 292 292 292 292 292 292 291 291 291 290 290 290 289 289 288 288 288 288 288 287 287 287 286 286 286 285 285 285 285 285
317 313 311 323 326 317 310 309 309 307 305 309 309 305 308 310 305 303 305 308 306 305 307 305 304 306 302 295 291 292 293 293 294 294 293 292 292 292 292 292 292 293 293 293 293 293 293 293 293 293 293 293 293 293 293 293 293 293 294 293 293 293 293 293 293 292 292 292 292 292 292 292 292 291 291 291 290 290 290 289 289 288 288 288 288 287 287 287 287 286 286 286 285 285 285 285 285
308 309 316 320 313 311 308 306 307 305 303 307 309 304 306 306 302 304 304 306 308 307 307 307 307 307 305 298 291 291 292 292 292 293 292 292 292 292 292 293 293 293 293 293 293 293 293 293 293 293 293 293 293 293 293 294 294 294 294 294 294 294 294 293 293 293 293 292 292 292 292 292 292 292 291 291 290 290 290 289 289 289 288 288 288 287 287 287 286 286 286 286 286 285 285 285 284
307 311 315 312 306 306 306 303 304 303 303 307 307 304 304 302 301 304 305 306 309 310 307 308 308 306 304 299 292 290 290 291 292 292 292 292 292 292 292 293 293 292 293 293 294 294 294 293 293 293 293 293 294 293 293 293 293 294 294 294 294 294 294 294 293 293 293 292 292 292 292 291 291 291 291 291 291 290 290 289 289 289 288 288 287 287 287 287 286 286 286 286 285 285 285 284 284
308 311 308 305 305 304 304 303 302 301 304 307 306 304 302 302 304 303 303 305 307 308 308 308 307 300 298 296 292 292 292 290 291 292 292 292 292 292 292 292 292 292 293 293 293 294 293 293 293 293 293 293 293 293 293 293 293 293 293 293 294 294 293 293 293 293 293 292 292 292 291 291 291 291 291 291 291 290 290 289 289 288 288 288 287 287 287 286 286 286 286 285 285 285 285 284 284
306 311 307 302 302 302 302 301 301 302 303 304 302 301 301 304 304 300 302 304 304 303 301 299 297 293 294 295 294 294 292 290 291 292 292 293 292 292 292 292 292 292 293 293 293 293 293 293 293 293 294 293 293 293 293 293 293 293 293 293 293 293 293 293 293 293 292 292 292 292 291 291 291 291 291 291 290 290 290 289 289 288 288 288 287 287 287 286 286 286 285 285 285 285 284 284 284
308 310 307 301 301 303 301 300 302 302 301 300 300 301 303 304 300 299 303 303 301 300 297 295 295 294 296 299 298 294 292 291 291 292 292 292 292 292 292 292 293 293 293 293 292 293 293 293 294 294 294 293 293 293 293 293 293 293 293 293 293 293 293 293 292 292 292 292 291 291 291 291 291 291 291 290 290 290 289 289 289 288 288 288 287 287 286 286 286 286 285 285 285 284 284 284 284
309 306 305 302 303 304 301 301 302 302 302 300 300 303 304 300 299 302 304 302 300 299 298 297 298 300 299 299 297 294 293 291 290 292 292 292 292 292 293 293 293 292 292 292 293 293 294 294 294 294 294 294 294 293 293 293 293 293 292 292 292 292 292 292 292 292 291 291 291 291 291 291 291 291 290 290 290 289 289 289 288 288 288 287 287 287 286 286 286 285 285 285 285 284 284 284 284
305 306 306 304 306 306 301 301 303 301 302 300 300 303 303 299 299 304 305 300 299 300 300 297 298 301 298 297 295 291 292 291 291 292 292 292 292 293 293 292 292 292 292 293 293 294 294 294 294 294 294 294 294 293 293 292 292 292 292 292 292 292 292 292 291 291 291 291 291 291 290 290 290 290 290 289 289 289 289 288 288 288 287 287 287 287 286 286 285 285 285 285 284 284 284 284 284
303 305 306 307 310 308 301 301 301 301 301 300 300 302 303 300 300 305 303 300 300 301 302 298 298 300 297 296 295 291 290 291 292 292 292 292 292 292 292 292 292 292 293 293 294 294 294 294 294 294 294 293 293 293 292 292 292 292 292 292 292 292 292 291 291 291 291 290 290 290 290 289 289 289 289 289 288 288 288 288 287 287 287 287 286 286 286 286 285 285 285 285 284 284 284 284 283
304 305 306 311 316 312 303 301 300 300 301 301 300 304 308 305 305 306 302 300 301 301 302 300 299 300 298 296 294 292 290 291 292 292 292 291 292 292 292 292 293 293 293 293 293 293 294 293 293 293 293 293 293 293 293 292 292 292 292 292 292 291 291 291 291 291 290 290 290 290 289 289 289 289 288 288 288 287 287 287 287 287 286 286 286 286 286 285 285 285 285 284 284 284 284 284 283
305 304 307 313 317 317 305 299 299 300 301 300 301 308 316 314 309 306 300 299 301 302 302 300 298 299 299 296 294 294 291 290 291 290 291 291 292 293 293 292 293 293 293 293 294 293 293 293 293 293 293 293 293 292 292 292 292 291 291 291 291 291 290 291 290 290 290 289 289 289 289 289 289 288 288 288 288 287 287 287 287 287 286 286 286 285 285 285 285 285 284 284 284 284 284 283 283
307 305 313 314 312 320 312 301 301 300 301 300 302 308 311 311 307 302 299 298 300 303 303 299 298 298 298 296 295 295 290 288 290 290 291 292 292 293 293 293 293 294 294 293 294 293 293 293 293 293 293 292 292 292 292 291 291 291 291 291 290 290 290 290 290 289 289 289 289 289 289 289 289 288 288 288 287 287 287 287 287 286 286 286 285 285 285 285 284 284 284 284 284 284 283 283 283
314 308 319 317 309 323 318 303 302 302 301 301 303 308 309 307 304 300 298 299 300 302 304 301 297 297 297 296 294 293 290 288 289 290 291 292 292 293 293 293 293 294 294 293 293 293 293 293 293 293 292 292 292 292 292 291 291 291 291 291 290 290 290 290 289 289 289 289 289 289 288 288 288 288 288 288 287 287 287 287 287 286 286 286 285 285 285 285 284 284 284 284 283 283 283 283 283
319 310 314 317 310 317 314 304 302 302 302 301 303 308 309 307 302 299 298 299 299 300 303 301 297 296 295 294 292 291 290 290 289 290 291 292 292 293 293 294 293 293 293 293 293 293 293 292 292 292 292 292 291 291 291 291 291 291 291 291 291 290 290 290 290 290 289 289 289 289 289 288 288 288 288 288 288 288 287 287 287 287 286 286 286 285 285 285 284 284 284 284 283 283 283 283 283
320 311 311 315 311 310 312 310 304 300 302 302 303 304 306 305 302 301 300 296 297 300 301 299 297 296 293 292 291 291 291 291 290 289 290 292 292 293 293 293 293 293 293 293 293 292 292 292 292 291 291 291 291 291 291 291 290 290 290 290 290 290 290 290 290 290 289 289 289 288 288 288 288 288 288 288 288 288 288 287 287 287 287 286 286 286 285 285 285 284 284 284 283 283 282 282 282
312 310 309 312 311 308 311 313 305 301 302 303 304 304 304 304 301 299 297 294 296 298 296 296 296 294 292 291 291 291 291 291 290 289 291 292 292 293 293 293 293 293 292 292 292 292 292 291 291 291 290 290 290 291 290 290 290 290 290 290 290 290 290 290 289 289 289 288 288 287 287 287 287 287 287 287 287 287 287 287 287 287 287 286 286 286 286 285 285 284 284 284 283 282 282 282 282
306 309 309 309 309 308 308 311 307 302 302 305 305 305 304 303 300 297 294 292 294 295 294 294 294 292 292 292 292 291 291 291 290 290 291 292 292 292 292 292 292 292 292 291 291 291 291 290 290 289 289 289 290 290 289 289 289 289 289 289 289 289 289 289 289 289 288 288 288 287 287 287 287 287 287 286 286 286 286 286 286 287 287 286 286 286 286 286 285 285 284 284 283 282 282 282 282
306 308 308 308 308 307 307 307 306 302 304 309 306 304 306 302 298 295 293 294 294 294 294 294 293 293 292 292 291 291 291 291 290 291 291 291 292 292 292 292 291 291 290 290 290 289 289 289 288 288 287 288 288 287 287 286 286 285 286 286 286 287 287 288 288 288 288 288 287 287 287 287 286 286 286 286 286 286 286 285 285 285 285 285 285 286 286 286 285 285 284 284 283 282 282 282 282
307 307 306 308 307 307 306 303 305 305 304 310 306 303 306 300 296 294 293 294 295 294 294 294 293 293 292 291 291 291 291 290 290 290 290 290 290 290 290 290 290 289 288 288 287 287 287 287 286 286 286 286 286 285 285 285 284 283 283 283 284 285 285 285 286 286 286 286 286 286 285 285 285 285 285 285 286 286 285 285 285 285 285 284 284 284 285 285 285 285 284 284 283 282 282 282 281
307 308 307 309 308 308 308 304 305 305 304 310 308 304 305 299 295 295 294 294 294 293 294 294 293 292 292 291 291 291 291 291 290 289 289 289 288 288 288 287 287 287 286 286 286 286 285 284 284 284 284 284 284 283 283 282 282 282 282 282 282 283 283 284 284 284 284 284 284 284 283 283 283 284 284 284 284 284 284 284 284 284 284 283 283 283 283 283 283 284 283 283 283 282 282 282 282
308 307 306 310 308 306 310 308 306 305 303 307 306 303 302 299 297 295 295 295 293 293 294 293 293 292 292 291 291 292 291 291 290 289 288 288 287 287 286 286 285 285 285 284 283 282 282 281 281 281 281 281 281 280 280 280 280 281 281 281 281 282 282 282 282 282 282 282 282 282 282 282 283 283 283 283 283 283 283 283 282 283 283 282 282 282 282 282 282 282 282 282 282 281 281 282 282
312 309 305 309 307 304 308 307 305 305 303 302 303 306 303 298 299 297 295 295 294 294 293 293 292 292 292 291 291 291 291 290 290 289 288 287 286 286 285 284 284 283 283 281 280 280 279 279 279 279 279 279 279 278 278 278 279 280 280 280 280 280 280 280 280 280 280 280 280 281 281 281 281 281 281 281 281 281 281 281 281 281 281 281 281 281 281 281 281 281 281 281 281 280 280 281 281
312 311 306 306 305 304 306 305 305 307 306 301 301 309 307 298 297 297 296 295 295 294 293 293 292 292 292 291 291 290 290 289 289 288 287 286 285 284 284 284 283 282 282 280 279 279 279 278 278 279 278 278 278 277 276 278 278 279 278 278 278 278 278 278 278 278 278 279 279 279 279 279 279 279 279 279 279 279 279 279 280 280 280 280 280 280 280 280 280 280 280 280 280 280 280 279 279
310 309 304 304 304 304 305 304 304 308 307 300 299 306 308 300 297 296 295 295 295 294 294 292 292 291 291 291 291 290 289 288 287 287 286 285 285 284 284 283 282 282 281 280 279 278 278 278 278 278 278 277 277 275 276 277 278 277 277 277 277 277 277 277 277 277 278 278 278 278 277 277 277 277 277 277 277 278 278 279 279 279 279 279 279 279 279 279 278 279 279 279 279 279 279 279 279
310 305 303 304 303 303 304 302 302 306 304 301 301 302 305 304 299 296 295 296 296 295 294 292 291 291 291 290 290 289 289 288 287 286 285 285 284 283 283 283 282 281 280 280 279 278 277 277 277 278 277 276 275 275 275 276 277 276 276 276 276 276 276 276 276 276 277 277 276 276 275 275 275 275 275 276 277 278 278 278 278 277 277 277 277 277 277 277 277 277 277 278 278 278 278 278 278
308 303 301 302 301 302 302 301 304 304 301 306 304 299 305 308 298 295 296 296 296 295 294 293 291 291 290 290 289 289 288 287 286 285 285 284 284 283 283 282 281 280 280 279 278 277 276 277 277 277 276 276 275 274 274 276 276 276 276 275 275 275 274 274 273 274 276 275 274 273 273 273 274 274 275 276 277 276 276 276 275 275 275 275 275 275 274 275 275 275 275 276 277 277 278 278 278
302 299 300 301 301 302 301 302 305 304 303 310 307 300 305 308 298 295 297 296 296 295 293 292 291 290 290 289 289 288 287 287 286 285 284 284 284 283 283 282 281 280 279 278 278 277 276 276 276 276 276 275 274 273 273 274 275 275 275 274 273 273 272 272 272 272 273 273 272 272 272 272 273 274 274 275 275 274 273 273 273 273 273 272 273 273 273 273 273 273 273 274 275 276 277 277 277
300 300 302 302 301 300 302 304 303 304 310 312 305 300 303 307 301 296 297 297 297 296 293 292 291 290 290 289 289 288 287 287 286 285 284 284 283 283 282 282 281 280 279 278 277 276 275 275 276 276 275 275 274 273 273 274 274 275 274 273 273 272 271 271 270 270 271 272 271 271 272 272 272 273 273 272 272 271 271 271 271 271 271 271 271 271 271 271 271 271 271 272 272 273 275 276 277
301 303 303 303 304 301 303 307 304 306 315 309 301 300 301 306 304 296 296 295 295 295 293 292 291 290 289 289 288 288 287 286 285 285 284 284 283 283 282 282 281 280 278 277 276 276 275 275 275 275 275 274 273 272 273 274 274 274 273 273 272 271 270 270 270 270 271 271 271 271 271 272 272 271 270 270 270 269 269 269 269 269 269 269 269 269 270 270 270 270 270 271 271 271 273 275 276
303 305 306 307 310 307 307 311 307 308 312 303 298 300 301 303 299 294 294 293 293 294 292 291 291 290 289 288 288 287 287 286 285 284 284 284 283 283 282 282 280 279 277 276 276 275 274 274 275 275 274 274 273 272 272 273 273 273 273 272 272 271 269 269 269 269 270 271 271 271 271 271 270 269 269 268 268 268 267 267 267 267 267 267 267 268 268 269 269 269 269 269 270 270 271 273 275
302 304 308 309 308 308 311 311 305 305 307 301 297 299 303 302 296 291 292 291 291 292 291 291 291 290 290 288 288 287 286 285 284 284 284 283 283 282 282 281 280 278 277 276 275 274 273 274 274 274 274 273 272 271 272 273 273 272 272 271 271 269 269 268 268 269 270 270 270 270 270 269 268 268 268 267 267 267 267 267 267 266 266 266 266 266 266 267 268 268 268 268 268 269 270 271 273
300 300 303 306 306 305 307 309 306 305 306 301 298 299 304 303 295 291 290 289 290 290 290 290 290 289 289 288 288 287 286 285 284 284 284 283 283 282 281 280 279 277 276 275 274 273 273 273 274 274 273 272 271 271 271 272 272 271 271 271 270 268 268 268 268 268 269 270 270 270 269 268 268 267 267 267 267 266 266 266 266 266 265 265 265 265 265 265 265 266 266 266 267 268 269 270 271
299 298 301 305 306 303 305 306 303 301 303 304 303 301 298 296 293 290 289 290 290 290 290 289 289 289 289 288 288 287 286 285 284 284 283 283 282 282 280 279 278 276 275 274 273 273 272 272 273 273 272 271 270 270 271 271 271 271 271 270 268 268 267 267 267 268 269 269 269 269 268 268 267 267 267 266 266 265 265 265 265 265 264 264 264 264 264 264 264 264 264 265 266 266 267 268 269
300 300 302 301 298 299 303 303 300 298 302 304 303 301 297 294 293 290 290 291 290 289 289 288 288 288 288 289 288 287 286 285 284 284 283 283 282 281 280 278 277 276 275 274 273 272 272 272 273 273 272 271 270 270 270 271 271 270 270 268 267 267 267 267 267 268 268 269 269 268 268 267 267 266 265 265 265 264 264 264 264 264 263 263 263 263 263 263 263 263 264 264 265 265 266 267 268
302 303 302 298 296 300 303 303 303 304 305 303 301 302 301 300 298 292 290 292 291 290 289 288 287 287 287 288 288 288 286 285 284 284 283 283 281 280 279 277 276 275 274 273 272 272 271 272 272 272 271 270 269 269 270 270 270 269 268 267 266 266 266 267 267 268 268 268 268 268 267 266 265 264 264 264 264 263 263 263 263 262 262 262 262 262 262 262 262 263 263 263 264 264 265 265 266
298 300 298 297 300 304 304 302 304 304 303 303 302 300 300 303 301 293 291 293 291 290 289 287 287 287 287 287 288 288 286 285 285 284 283 282 280 279 278 276 275 274 273 273 272 271 271 271 272 271 270 269 269 269 270 270 269 268 267 266 266 266 266 266 267 267 268 267 267 266 266 265 264 264 263 263 263 262 262 262 262 262 261 261 261 261 261 261 262 262 262 263 263 264 264 264 264
299 300 300 300 302 303 301 299 302 303 302 303 303 302 301 299 296 293 292 292 291 290 289 288 287 286 286 287 288 288 287 286 285 283 283 281 279 278 276 275 274 273 273 272 271 271 271 271 271 269 269 268 268 269 269 269 268 267 266 266 266 266 266 266 267 267 267 266 266 265 264 264 263 263 262 262 262 262 261 261 261 261 261 261 261 261 261 261 261 261 262 262 262 263 263 263 263
302 304 304 302 301 302 300 297 298 300 302 303 302 304 303 295 290 292 292 291 291 290 289 288 286 286 286 286 287 288 288 287 285 283 282 280 278 277 275 274 274 273 272 271 270 270 270 270 269 268 268 268 268 269 269 268 267 266 266 265 265 265 265 265 266 267 266 265 265 264 263 263 262 262 262 261 261 261 261 261 260 260 260 260 260 260 260 260 261 261 261 261 261 261 262 262 262
300 302 300 300 300 301 302 301 299 298 300 301 300 302 301 292 289 291 291 290 290 289 288 287 286 286 285 285 286 287 287 287 285 283 281 279 277 276 275 274 273 272 271 271 270 270 270 269 268 268 267 267 268 268 267 266 266 266 265 265 265 265 265 265 266 266 265 265 264 263 262 262 262 261 261 261 261 260 260 260 260 259 259 259 260 260 260 260 260 260 260 260 260 261 261 261 262
Wind_Speed
7 8 7 6 5 1 2 5 2 2 2 0 2 1 3 1 1 2 2 2 1 2 3 2 2 3 3 3 5 5 4 6 5 4 3 4 4 22 18 6 19 23 20 18 15 13 10 9 8 8 8 8 8 7 8 8 8 8 9 8 8 8 8 8 8 8 9 8 8 9 9 9 9 9 9 9 10 10 10 11 11 11 11 12 12 12 12 12 13 13 13 13 13 13 13 13 13
8 8 7 4 5 2 1 3 2 3 2 2 3 3 3 1 1 5 7 6 3 2 1 3 3 2 3 2 3 1 3 3 2 3 1 2 11 22 15 12 23 22 20 18 14 12 10 11 9 9 9 8 8 8 8 8 9 8 9 8 8 9 9 9 9 9 9 9 9 9 9 9 9 9 9 9 9 10 10 11 11 11 11 11 12 12 12 12 12 12 13 12 13 12 13 13 13
9 8 6 2 3 4 1 3 1 1 1 4 5 4 2 2 5 7 7 5 3 3 2 3 3 1 3 1 1 1 4 2 1 2 1 8 14 19 17 17 23 19 19 16 12 11 11 12 10 10 9 9 9 9 9 8 9 9 9 9 9 9 9 10 10 11 11 10 10 9 9 9 9 9 9 9 9 10 10 10 11 11 11 11 11 12 12 12 12 12 12 12 12 12 12 13 13
10 8 6 2 2 4 4 3 2 4 2 3 3 5 3 5 7 4 3 2 1 2 2 2 1 1 2 2 2 0 4 2 5 5 4 14 15 20 23 20 22 18 17 14 12 11 12 13 10 11 10 10 10 9 9 8 8 8 8 8 8 9 9 10 11 11 12 12 12 11 10 10 10 9 9 9 9 9 9 10 10 11 12 11 11 11 12 12 12 12 12 12 12 12 12 13 13
7 7 7 3 3 1 3 2 2 3 4 4 2 5 4 6 5 2 1 2 1 2 2 3 1 1 1 3 2 0 4 1 5 8 7 15 17 22 25 22 22 18 16 14 12 12 13 13 11 11 10 10 10 9 8 8 8 7 7 7 7 8 9 10 11 12 12 13 13 13 12 11 11 10 10 10 9 10 9 10 10 11 12 12 11 11 11 12 12 12 12 12 12 12 12 13 13
5 6 9 7 3 1 3 1 2 2 5 5 3 5 5 5 5 4 2 1 1 2 3 2 1 0 0 3 2 3 3 2 4 9 7 13 19 23 25 23 21 17 16 14 13 13 14 14 12 12 11 10 10 9 8 7 7 6 6 6 7 8 8 9 10 11 12 13 14 13 13 13 12 12 11 10 10 10 10 9 10 11 11 11 11 11 11 11 12 11 12 12 11 11 12 13 12
6 3 6 7 2 2 3 3 4 4 4 5 4 5 5 4 5 6 3 1 0 0 1 1 1 2 2 2 1 3 3 3 4 5 6 12 21 24 24 23 21 18 16 14 14 13 14 14 12 12 11 10 10 9 8 7 7 6 6 6 6 7 7 8 9 10 11 12 13 13 13 13 13 13 12 12 11 11 10 10 10 11 11 11 11 11 11 11 11 11 11 11 11 11 11 12 12
9 3 1 4 1 3 3 2 3 4 3 3 4 5 4 4 6 6 5 2 1 2 1 1 1 2 4 2 1 4 3 5 3 3 7 13 21 25 24 23 21 19 17 15 15 14 14 14 13 12 11 11 10 9 8 8 6 6 5 5 5 6 6 7 8 9 9 11 12 13 13 13 13 13 13 13 13 12 11 11 10 11 11 11 11 11 11 11 11 11 11 11 11 11 11 12 11
8 5 0 2 0 2 2 3 4 3 4 4 4 4 3 4 5 5 5 2 1 2 1 3 3 3 4 3 3 4 2 7 4 4 9 14 20 24 25 23 22 21 19 16 15 15 14 14 13 12 11 11 10 10 8 7 6 6 5 5 5 5 5 5 6 7 8 10 11 12 13 13 13 14 15 15 14 14 13 13 12 12 11 11 12 11 11 11 11 11 11 11 11 11 10 11 10
5 4 1 1 1 2 4 3 3 3 5 5 5 5 3 5 5 3 6 3 2 3 2 2 3 3 2 2 5 3 2 8 7 7 12 16 20 23 24 22 21 21 20 18 17 16 15 15 14 12 12 11 10 10 8 6 5 4 4 3 4 4 5 5 5 6 7 9 10 11 12 12 13 14 15 15 15 15 15 14 14 13 12 12 12 12 12 11 11 11 10 11 11 10 10 10 10
3 4 2 2 2 2 4 4 4 5 5 4 5 5 5 6 5 2 3 2 2 2 1 3 2 3 0 3 4 1 3 8 10 11 14 18 20 22 22 22 20 20 20 19 18 17 16 15 15 14 12 12 11 9 8 6 4 3 2 2 3 4 4 5 5 6 7 8 9 10 11 12 13 13 14 15 15 15 15 15 14 14 14 13 13 12 12 12 12 11 11 11 11 10 10 10 10
2 3 4 3 1 3 4 3 5 6 6 4 3 3 4 7 5 3 4 3 2 2 3 5 3 3 3 4 4 2 4 10 12 11 16 20 20 21 21 21 21 20 19 18 18 17 16 15 16 16 13 12 11 9 8 6 3 2 1 2 3 4 5 6 6 7 8 9 10 10 11 12 13 13 13 14 15 15 15 15 14 15 15 14 14 13 13 12 12 11 11 11 11 10 10 10 9
2 2 5 1 3 2 3 2 4 5 6 4 4 2 6 7 5 6 6 3 3 3 6 7 3 2 2 4 3 4 5 12 13 13 19 20 21 21 21 21 20 21 20 18 18 17 16 15 15 16 15 13 12 10 9 7 5 4 3 3 4 5 6 7 7 8 9 10 10 11 12 12 13 14 14 14 14 15 15 15 15 15 15 15 15 14 14 13 13 12 12 11 11 10 10 10 8
3 3 5 2 0 2 3 2 3 2 5 5 2 3 5 4 5 5 8 4 6 6 4 6 6 2 3 3 4 5 4 12 15 17 21 21 22 22 22 22 21 21 20 19 18 16 16 15 14 15 15 14 13 12 10 8 7 6 5 5 6 7 8 9 9 9 10 10 11 11 12 12 13 14 14 14 14 15 16 16 16 15 15 15 15 15 15 14 14 13 12 12 11 10 11 10 7
3 3 4 2 0 0 3 3 2 2 5 4 2 5 5 3 4 5 6 6 7 5 1 2 5 2 3 2 3 5 4 15 18 19 23 22 23 23 22 22 21 21 20 19 18 17 16 15 14 13 14 14 13 12 10 9 8 8 7 8 8 9 9 10 10 10 10 11 12 12 13 13 13 14 14 15 15 15 16 17 17 15 15 15 15 16 16 15 15 14 13 12 11 11 10 9 9
3 4 5 1 2 2 4 3 2 2 6 4 1 4 4 4 4 3 4 4 2 2 1 3 4 2 3 4 2 4 7 18 19 21 24 22 22 22 22 22 21 21 20 20 19 18 17 16 15 14 13 13 12 11 10 10 9 9 9 10 10 10 11 11 12 12 12 12 13 13 14 15 14 14 15 15 16 16 16 17 17 16 15 15 16 16 17 17 16 15 13 12 12 11 10 11 13
3 4 3 1 3 3 4 5 4 4 5 4 2 3 5 4 1 1 1 3 1 2 1 4 3 1 3 2 3 2 14 21 20 23 23 21 22 20 20 21 21 22 22 21 20 19 18 18 17 15 14 13 13 12 12 11 11 11 11 11 12 12 12 12 13 13 13 13 14 14 15 16 16 16 15 16 16 17 17 17 18 17 16 16 16 17 17 17 17 17 16 14 13 12 13 15 16
3 3 3 3 4 4 6 8 7 4 2 3 4 5 7 3 2 1 1 2 2 1 3 4 4 2 2 2 1 10 20 21 22 25 22 21 20 19 20 21 22 23 23 23 22 21 20 19 17 16 15 14 14 13 13 12 12 12 12 12 12 13 14 14 14 15 15 15 15 15 16 16 17 17 17 17 17 17 18 17 18 18 18 18 18 18 18 18 17 18 18 17 16 16 17 17 17
3 3 2 4 6 5 5 7 6 3 1 2 3 3 6 6 3 2 2 3 2 2 5 4 5 6 1 2 7 16 21 22 24 25 23 23 23 22 21 21 23 24 25 25 24 22 21 19 18 17 16 15 15 15 14 14 13 13 13 13 13 14 15 15 16 16 17 17 17 17 16 17 17 18 18 18 18 18 18 18 18 18 19 19 19 19 19 19 18 18 18 18 19 19 19 19 18
2 3 2 6 6 4 4 5 5 3 2 2 2 2 4 5 2 2 3 4 3 5 6 3 6 10 6 4 10 17 18 21 22 23 23 23 24 24 23 24 26 27 26 24 23 22 21 19 18 17 16 16 16 16 15 15 14 14 14 14 15 15 16 16 17 18 18 18 18 18 18 18 18 18 19 19 19 19 19 19 18 19 19 20 20 20 20 19 19 19 19 19 19 20 20 20 20
2 4 4 5 3 2 4 6 5 3 1 2 3 3 2 4 2 2 2 3 6 6 7 8 9 11 8 5 9 15 16 17 18 19 20 21 22 23 24 25 25 24 24 22 21 20 19 18 18 17 17 16 16 16 16 16 16 16 16 16 16 16 17 17 18 19 19 19 19 19 19 19 19 19 20 20 20 19 19 20 19 19 20 21 21 21 21 21 21 21 20 20 20 21 21 21 21
2 3 6 5 4 2 3 4 4 3 3 4 5 3 2 1 1 3 5 4 7 5 5 9 11 8 7 8 10 12 12 14 15 17 18 20 21 22 23 23 21 19 18 20 19 18 17 17 17 17 17 17 17 18 18 18 18 18 18 18 18 18 18 19 19 19 20 20 20 20 20 20 20 20 20 20 20 20 20 20 20 20 21 21 21 22 22 21 22 22 22 21 21 21 21 21 22
2 4 3 4 4 2 1 1 3 4 5 3 3 3 0 3 3 2 6 10 9 5 3 6 6 4 6 11 11 10 10 12 15 20 21 22 22 22 21 20 19 17 16 17 16 15 15 16 17 18 18 19 19 20 20 20 21 21 21 21 21 20 21 21 20 21 21 21 21 21 21 21 21 20 20 21 21 21 21 21 21 21 21 22 22 22 22 22 22 22 22 22 22 22 22 21 22
2 4 3 2 4 3 1 1 1 3 3 1 2 1 1 0 4 2 4 12 10 7 4 2 1 2 9 10 10 10 11 14 17 21 21 20 20 18 16 16 17 17 16 14 13 14 14 15 16 17 18 19 20 21 22 22 22 23 23 23 22 22 23 22 22 22 22 22 22 22 21 21 21 21 21 21 21 21 21 21 21 21 22 22 22 22 23 22 22 22 23 23 23 23 22 22 22
2 3 3 1 2 4 3 1 3 3 1 0 1 2 3 4 1 2 10 12 8 8 5 2 3 6 8 8 9 9 9 13 15 15 14 13 13 12 12 14 15 15 14 12 11 12 13 13 13 14 14 15 17 18 19 20 20 20 21 21 21 21 22 22 22 22 22 21 21 20 20 20 20 21 20 20 20 20 20 21 21 21 21 22 22 22 22 23 23 22 23 23 23 23 23 23 23
2 2 2 1 2 5 3 1 4 4 2 2 1 5 4 4 0 4 12 9 5 5 3 0 5 6 5 6 7 8 8 11 11 10 10 10 10 11 11 12 12 10 8 7 8 9 9 8 8 7 6 6 7 8 9 10 11 12 13 13 14 15 16 17 17 17 17 17 17 17 18 18 19 19 19 19 19 20 19 20 20 20 21 21 22 22 22 23 23 23 23 23 24 24 24 24 24
1 1 0 0 3 5 2 1 3 3 1 2 1 6 5 2 1 5 7 4 4 5 6 3 3 4 4 3 5 7 6 7 8 8 9 10 11 11 10 9 7 4 3 4 5 6 6 6 6 6 6 6 7 8 8 8 8 8 8 8 9 9 10 10 11 11 12 12 13 14 14 15 16 16 16 17 17 18 19 19 19 20 21 20 21 23 22 23 23 23 23 24 24 24 25 24 24
1 1 2 4 6 5 2 2 4 3 1 3 4 4 5 1 2 7 4 3 4 5 6 4 2 1 2 3 3 3 2 4 7 9 10 9 8 9 7 4 2 4 7 12 15 15 15 15 15 15 14 14 14 13 13 12 11 10 9 9 9 8 9 9 8 9 9 10 10 10 11 11 12 13 13 14 15 17 18 19 19 20 20 20 21 22 23 23 23 24 24 24 24 25 26 25 24
1 3 3 8 8 6 4 2 4 1 1 4 3 4 6 2 7 8 4 6 5 7 6 5 2 1 1 2 2 4 2 5 8 7 7 5 4 5 5 4 8 16 19 21 20 20 20 19 19 19 18 18 17 17 16 15 15 14 13 12 12 11 11 10 10 9 9 9 9 10 10 10 11 12 12 13 14 15 17 18 18 19 19 19 20 21 22 23 23 24 24 24 25 25 26 26 25
1 3 2 5 8 6 4 2 1 1 2 1 2 4 6 7 9 8 6 6 5 4 4 5 3 2 2 2 5 5 4 3 3 3 4 6 7 8 11 14 20 25 25 24 23 23 23 22 22 21 20 20 20 19 18 18 17 16 15 15 15 15 14 13 12 11 11 11 11 12 12 13 13 13 13 13 14 15 16 17 18 19 18 17 18 19 21 22 23 24 24 25 25 26 27 27 27
1 2 2 3 2 5 6 1 2 3 0 2 2 3 6 10 8 7 8 4 3 3 4 5 4 4 4 4 6 5 7 8 7 8 9 11 15 19 24 26 27 27 26 26 25 25 24 23 24 23 22 21 20 19 19 18 18 17 17 17 17 17 17 15 14 14 14 13 13 13 13 13 12 12 12 12 13 14 15 16 17 18 17 17 17 18 20 21 22 24 24 25 26 26 27 27 27
3 2 4 3 1 5 7 2 3 3 1 3 2 3 7 9 6 4 6 5 6 5 6 5 6 6 5 5 6 6 8 14 18 19 19 22 26 29 31 30 28 27 26 26 25 25 25 24 23 23 22 21 20 19 18 17 16 16 16 16 17 17 17 16 16 16 16 15 15 15 15 14 12 12 12 12 13 14 15 15 16 16 16 16 17 17 19 21 22 24 24 24 26 27 27 28 28
4 1 4 3 2 4 6 3 1 0 1 2 0 3 5 5 3 2 7 9 9 8 7 5 6 5 6 6 7 7 8 13 19 22 25 28 29 30 30 29 27 26 26 25 25 25 24 23 23 22 21 21 20 18 17 16 16 16 16 16 16 16 17 16 16 16 17 16 16 16 16 15 14 14 14 14 14 15 15 16 17 16 16 16 16 17 18 19 21 23 24 23 25 26 27 28 29
4 2 2 4 2 3 5 4 3 3 1 1 1 3 7 8 4 6 10 11 10 7 7 4 5 5 6 7 7 8 9 10 11 16 23 27 28 29 28 27 26 25 25 24 24 24 23 22 21 19 18 18 17 16 15 15 15 15 14 15 15 15 15 16 16 17 17 18 17 17 17 17 17 16 16 16 16 16 17 17 18 17 17 17 16 17 18 18 19 21 23 23 23 25 27 28 29
3 3 2 4 3 2 4 4 2 3 1 2 3 4 10 11 7 9 10 9 8 7 6 2 5 7 7 8 8 9 10 10 9 15 22 26 28 27 26 25 25 25 25 24 24 23 21 20 18 18 17 16 15 14 13 12 12 12 12 12 11 12 12 13 14 15 16 17 17 17 18 19 19 19 19 19 19 19 19 19 20 19 19 18 18 18 18 18 19 20 21 23 23 24 25 27 28
3 4 3 4 5 4 5 5 4 1 1 4 6 6 9 10 9 11 11 9 6 5 3 4 5 7 8 8 8 9 11 9 10 18 24 26 27 26 25 24 25 27 26 25 24 23 22 21 20 21 20 18 16 16 16 15 15 16 15 15 14 14 13 12 12 13 14 15 16 17 17 18 19 19 20 20 21 22 22 23 23 22 22 21 20 20 19 19 19 20 21 22 23 24 25 26 26
2 1 3 4 5 5 5 4 5 1 0 5 4 4 7 7 8 10 10 8 8 7 6 7 6 7 8 10 10 11 11 8 13 22 24 26 27 26 27 27 28 28 28 26 26 26 25 24 23 24 23 21 21 21 21 22 23 23 21 21 21 20 18 16 15 14 15 15 16 17 18 19 20 19 19 20 20 21 22 23 24 24 25 25 25 23 22 21 20 21 21 21 22 23 24 24 23
2 1 3 4 3 6 5 1 5 2 1 4 2 3 6 5 7 8 8 8 8 7 6 7 8 9 8 11 12 10 9 8 14 20 23 26 28 29 30 30 30 30 29 28 28 28 26 26 26 26 24 23 24 25 24 24 25 25 24 24 24 23 20 19 19 18 17 17 18 19 20 21 21 21 20 19 19 19 19 20 21 22 23 25 27 27 26 24 23 22 22 22 22 22 23 23 21
1 0 1 4 3 4 5 3 5 2 1 4 4 5 5 4 5 7 8 6 5 5 6 7 7 10 9 10 11 10 9 9 11 14 19 25 27 30 31 31 31 30 30 29 29 28 28 28 28 27 26 25 26 26 25 25 24 24 23 23 24 23 21 20 19 19 20 21 21 21 22 22 21 20 19 19 19 18 18 19 19 19 19 21 23 26 27 27 27 26 24 23 22 22 22 23 21
1 1 1 4 3 2 3 4 5 2 1 3 3 5 4 4 5 6 8 5 5 6 8 8 7 8 9 9 9 9 10 10 9 10 15 22 26 28 29 28 29 30 30 30 30 30 30 30 29 28 27 27 27 27 26 25 24 23 22 22 21 21 20 21 21 22 23 24 23 22 21 20 19 18 18 18 18 18 19 19 20 20 19 19 20 22 24 25 27 27 27 26 23 22 21 21 20
3 4 4 5 3 2 5 3 5 3 2 1 3 5 3 4 4 5 6 5 6 7 9 10 8 7 8 9 9 8 9 9 9 9 12 19 23 25 26 27 28 29 29 29 30 30 30 30 29 28 27 27 27 28 27 25 24 24 24 23 23 22 21 22 23 24 25 25 24 22 20 18 18 18 18 18 19 20 21 21 21 21 21 20 20 21 22 23 24 25 26 27 25 23 24 23 21
5 3 6 6 4 3 4 4 5 4 3 1 3 3 4 3 4 3 4 5 6 6 8 10 8 7 8 9 8 8 8 8 10 11 12 17 20 23 25 26 27 27 26 26 28 30 30 29 29 27 26 26 28 29 28 26 24 24 25 25 25 24 22 21 22 24 25 24 22 20 19 19 20 21 22 22 23 23 23 22 21 21 21 20 20 21 22 22 23 24 24 25 26 26 26 24 24
4 3 4 4 2 2 3 4 3 2 3 2 3 1 4 3 3 3 3 5 6 6 8 8 7 7 7 7 7 7 8 8 10 12 15 17 19 22 24 24 25 24 23 25 28 30 30 29 28 26 26 26 29 31 28 25 24 25 25 24 22 21 21 21 22 23 23 21 20 20 22 24 25 25 25 24 22 21 21 20 20 19 19 20 20 21 22 23 23 24 24 24 26 26 25 23 26
3 3 3 2 1 3 3 0 1 3 3 3 1 3 3 4 1 2 2 5 6 6 7 7 7 6 6 7 7 7 7 7 8 9 13 17 18 20 20 21 22 22 23 26 28 29 29 28 27 26 25 26 29 31 28 25 25 26 25 22 21 19 19 21 22 23 21 20 21 24 26 27 27 25 23 20 19 19 20 20 19 19 20 21 21 22 22 23 23 24 24 25 25 26 25 24 26
4 2 3 2 2 2 2 3 3 1 3 4 3 2 1 4 2 1 1 4 4 3 5 6 6 6 6 7 7 7 7 8 9 9 11 15 17 18 19 19 20 22 24 25 26 27 29 28 26 25 25 27 30 31 28 24 23 26 24 21 20 19 20 22 23 22 21 22 26 27 26 26 24 22 20 18 18 19 19 19 21 22 23 23 22 23 24 24 25 26 25 25 26 26 26 26 27
3 2 1 1 3 2 2 3 2 2 2 4 4 1 1 3 2 2 1 2 3 3 3 4 5 5 6 6 6 6 6 7 9 11 13 15 16 17 17 18 20 21 23 24 26 27 29 29 26 25 25 28 30 30 28 23 22 25 22 19 20 21 24 26 26 25 22 23 26 26 25 25 23 21 19 18 18 20 21 22 25 26 26 27 27 28 29 29 30 30 29 28 27 27 27 27 28
2 2 2 3 4 4 3 2 3 3 2 5 5 1 2 2 2 3 2 2 5 5 4 4 4 5 5 5 5 5 5 5 6 9 13 14 15 16 17 18 18 19 23 26 27 28 30 29 26 25 26 28 30 30 28 24 23 23 19 19 22 23 25 28 28 27 25 24 26 26 25 23 20 19 19 20 22 24 27 28 29 29 30 30 31 31 32 33 34 34 34 33 31 29 28 27 29
2 3 3 4 4 3 4 4 3 3 3 5 4 1 2 2 3 1 3 4 3 6 5 5 5 5 4 4 4 4 5 5 5 6 9 12 13 15 16 16 16 19 24 28 29 29 30 29 25 25 27 28 30 30 27 24 23 21 18 21 25 25 27 28 27 25 24 24 25 26 24 20 19 20 22 24 26 28 30 30 29 29 30 30 30 32 33 34 34 35 34 34 33 32 30 28 28
5 3 4 4 5 4 3 4 2 1 4 2 1 2 0 3 1 2 6 6 3 6 5 5 6 4 4 4 4 4 4 5 5 5 6 9 10 12 13 14 15 18 23 26 28 28 28 27 23 23 26 28 30 30 26 24 23 19 20 24 28 29 30 29 26 24 21 22 25 23 19 18 19 21 24 26 28 31 33 30 29 28 27 28 31 34 34 34 34 34 34 32 31 31 30 28 29
5 2 3 3 2 4 4 4 2 3 4 3 1 2 2 2 1 3 4 4 4 7 6 4 5 5 4 3 3 4 4 4 4 4 6 8 9 10 11 12 13 15 18 22 25 25 26 25 21 22 26 27 29 29 25 24 21 19 21 26 29 31 30 27 25 22 20 22 23 18 16 18 21 23 25 27 30 33 33 30 29 28 27 30 34 35 34 34 34 34 33 31 30 29 29 28 29
3 2 4 2 1 0 4 3 2 5 5 4 3 1 2 2 2 3 2 3 5 6 5 5 5 4 3 3 3 4 4 4 4 4 6 7 8 9 9 10 10 12 15 19 23 24 26 25 20 21 23 24 26 26 24 21 19 19 23 26 30 30 28 26 24 21 21 22 19 15 17 21 23 25 27 30 33 35 34 31 29 29 31 34 36 34 34 34 33 32 32 33 32 30 28 28 29
1 2 3 2 2 2 2 3 3 3 3 4 3 1 2 1 2 2 2 3 5 5 5 6 5 4 3 3 2 3 3 3 2 3 4 6 7 7 7 8 10 13 15 18 21 23 25 23 18 18 20 22 24 24 22 20 18 21 25 29 31 29 27 25 24 23 22 19 15 16 21 25 27 30 31 33 35 35 33 30 27 30 33 34 35 34 33 33 31 30 31 32 32 30 29 29 29
0 1 1 2 3 4 1 3 1 2 2 3 1 1 1 1 1 1 2 3 4 4 4 6 5 4 4 2 1 2 2 2 2 2 3 4 5 6 8 9 11 14 15 17 20 22 24 22 17 17 20 22 23 23 21 18 19 23 27 29 30 29 27 25 25 24 21 16 16 20 26 29 31 33 34 34 33 32 30 27 27 30 32 33 35 34 31 31 30 29 29 30 30 29 29 29 28
2 2 2 2 1 3 3 1 4 4 1 3 2 1 3 2 1 1 2 2 1 3 4 4 4 5 4 3 1 2 2 2 2 2 2 3 5 6 7 9 10 13 15 18 22 24 24 21 16 16 20 21 22 22 19 17 19 24 26 28 28 27 26 25 24 22 18 17 22 25 29 31 32 33 34 33 31 30 29 27 28 31 32 33 35 33 31 31 30 28 28 29 29 27 28 30 29
3 1 2 1 2 2 2 1 2 3 3 4 4 3 3 2 2 3 5 5 2 2 4 5 6 6 5 4 1 1 2 2 2 1 1 3 5 5 7 10 12 15 18 21 23 23 21 18 15 17 21 21 22 22 18 17 21 24 26 27 26 25 24 24 22 19 18 21 25 28 31 32 33 34 34 32 30 30 30 29 29 32 33 33 33 32 31 31 29 28 28 27 27 27 29 33 32
3 2 3 3 3 2 1 1 1 1 3 4 4 5 3 1 2 4 6 5 3 2 3 4 5 6 6 5 3 2 2 2 2 1 1 3 5 6 9 12 14 17 20 21 22 21 19 16 16 19 22 22 22 20 17 19 23 25 26 27 26 23 24 23 19 18 20 23 25 28 32 33 34 33 31 30 31 31 31 30 31 33 33 33 33 32 29 28 27 27 27 27 28 28 30 34 34
3 3 4 4 2 0 1 1 1 1 1 2 3 5 4 1 4 2 3 4 3 3 3 3 3 5 5 6 5 4 3 3 3 1 2 4 6 7 10 13 16 19 22 22 21 20 17 16 18 22 23 23 22 18 19 23 25 24 25 26 24 23 24 23 18 18 22 24 27 31 32 32 32 31 31 31 31 30 30 31 33 33 32 30 29 28 27 26 27 28 28 28 29 29 30 32 33
1 2 2 1 2 2 2 3 2 2 1 3 1 5 6 3 4 3 5 5 3 3 3 2 3 3 4 5 6 5 4 4 3 2 4 6 7 8 10 14 18 20 21 21 20 19 17 17 21 23 23 22 20 19 23 26 24 23 25 25 23 21 23 23 19 20 24 27 29 32 31 31 31 31 31 31 30 30 31 31 31 31 30 29 27 27 27 27 28 30 30 29 28 28 29 31 33
Wind_Direction
357 354 353 354 345 94 56 53 101 322 81 199 281 205 262 220 135 197 223 211 202 248 210 132 119 137 118 159 189 192 184 170 170 140 200 256 161 163 165 159 159 165 166 165 170 169 166 153 143 133 124 118 112 105 98 91 87 82 80 73 70 63 58 52 46 43 37 37 36 33 30 31 30 26 27 26 26 25 26 26 28 26 21 21 20 21 19 18 16 15 15 13 13 13 12 10 8
358 357 1 6 19 91 206 59 109 322 43 275 278 184 255 345 180 217 201 189 200 223 116 106 104 80 89 135 152 151 245 215 171 142 220 148 149 166 168 163 163 168 168 166 172 171 161 146 138 135 129 125 118 111 104 95 92 84 83 75 71 63 56 53 46 43 37 37 33 34 30 30 32 26 28 29 28 25 25 25 26 26 21 20 18 18 17 16 15 14 13 11 12 11 9 9 9
355 358 9 12 27 46 79 43 102 74 100 254 273 232 213 165 227 234 202 181 201 184 101 97 109 87 83 15 135 151 253 286 183 138 90 154 160 173 168 163 166 168 165 164 165 160 149 140 139 140 132 130 122 117 110 100 98 88 86 76 70 63 57 53 46 45 40 40 35 34 32 32 34 29 31 31 30 26 25 24 22 24 21 19 16 16 16 14 13 12 11 10 12 10 8 8 7
357 7 11 40 62 29 63 36 128 125 189 230 269 263 208 206 239 251 226 203 193 143 123 123 135 260 117 237 250 309 256 277 196 164 156 180 176 171 164 163 168 166 164 161 154 148 139 138 143 142 135 134 125 120 114 105 103 92 90 77 70 62 57 54 47 47 42 42 39 38 37 36 36 32 34 32 29 27 26 23 21 19 18 19 16 14 13 13 12 11 10 8 10 9 7 6 5
11 36 30 65 97 43 93 63 109 132 216 188 219 267 230 226 237 238 301 268 211 107 120 129 135 298 106 214 198 214 241 288 200 183 177 184 175 166 163 165 169 166 165 158 146 143 136 139 144 142 137 134 129 125 121 114 109 99 94 80 72 62 56 54 49 47 44 43 41 41 40 38 38 36 35 32 28 27 25 21 20 17 15 17 15 14 12 12 10 9 9 7 9 8 6 6 5
35 63 45 64 93 102 128 191 176 217 230 171 190 258 249 234 207 163 59 318 247 112 130 125 120 134 282 249 201 205 213 81 168 189 193 178 170 168 165 166 171 168 166 157 146 144 138 142 147 143 142 140 138 136 132 125 117 109 98 84 73 62 56 52 49 46 44 43 42 42 41 40 39 37 35 32 29 25 22 17 17 14 13 14 14 13 10 9 8 8 7 7 6 5 5 5 4
39 53 33 64 70 30 115 204 206 236 245 174 189 244 261 242 188 136 122 152 44 282 102 146 129 105 255 282 259 240 202 152 144 184 203 174 170 170 168 170 173 171 168 159 149 147 143 145 152 150 148 150 147 146 139 135 127 115 102 90 76 64 56 49 48 44 42 41 40 39 38 39 37 36 33 29 26 22 19 16 16 13 12 12 11 10 8 7 6 5 5 5 4 3 2 2 3
39 37 360 83 45 11 88 243 242 218 244 224 220 242 256 217 178 138 158 176 165 222 37 265 158 120 269 338 246 252 197 187 168 185 191 172 172 172 173 174 174 174 170 162 153 153 152 150 160 161 158 160 156 155 149 143 135 123 113 101 91 75 61 49 46 41 41 40 38 36 34 35 33 32 29 27 24 23 21 17 15 12 13 13 10 7 4 4 3 1 3 2 359 359 358 358 360
39 39 103 73 129 360 29 299 278 240 254 267 261 254 258 191 171 139 158 222 286 174 225 228 168 189 278 355 254 276 222 203 203 189 182 176 174 174 177 178 176 174 171 166 158 162 162 156 167 173 167 169 166 163 156 146 137 128 120 105 98 83 70 55 45 40 41 41 40 35 32 33 31 28 26 25 24 24 22 18 17 13 15 14 8 5 2 2 1 357 358 360 356 355 353 355 355
38 29 125 68 76 316 319 291 269 265 251 253 263 242 213 171 164 132 150 216 225 142 260 199 136 235 280 312 255 293 209 203 200 186 178 179 176 176 180 180 179 174 172 170 166 170 171 162 168 181 177 176 176 171 165 154 143 130 117 97 82 66 59 48 36 31 34 36 37 34 31 33 31 28 24 22 22 21 21 18 18 16 16 14 8 5 4 1 359 356 356 357 352 351 350 350 349
39 358 103 84 49 270 265 261 267 266 268 292 286 232 182 157 137 116 148 240 213 125 258 145 161 234 244 296 252 233 197 195 195 184 174 179 179 179 181 180 182 180 177 174 172 176 177 168 167 181 187 183 184 180 178 174 163 146 112 58 41 32 32 28 18 13 18 20 24 26 25 28 29 28 24 20 19 19 20 18 18 17 14 13 9 6 5 2 0 357 354 354 351 350 348 347 344
71 338 63 91 186 226 224 239 270 282 301 310 276 231 163 143 135 179 183 220 193 147 234 188 193 166 132 289 256 264 234 197 190 182 177 179 181 182 183 182 184 186 185 180 179 180 181 178 170 178 189 190 192 191 192 198 209 214 265 336 350 354 2 4 1 360 3 6 9 12 14 18 20 21 21 18 16 15 18 17 17 15 11 9 8 6 5 2 360 357 353 351 349 348 345 344 339
116 133 88 135 199 183 187 215 277 311 316 264 234 213 144 145 178 194 162 180 170 166 247 212 166 99 180 258 282 309 260 198 181 179 181 179 184 184 185 187 186 189 190 188 187 186 186 187 179 178 187 194 201 203 204 211 230 254 280 300 312 321 332 340 345 349 351 355 357 360 3 7 10 12 13 13 12 11 13 13 13 12 7 5 4 4 3 1 358 356 353 349 348 347 343 341 340
138 145 115 190 195 124 174 234 283 290 280 258 237 165 155 174 195 168 135 176 214 185 239 202 151 88 234 262 309 307 241 191 176 179 181 179 185 185 188 191 191 192 193 196 195 195 193 195 192 186 189 196 205 212 217 222 238 259 275 289 299 308 316 322 329 337 341 343 345 349 352 356 1 2 4 6 6 6 8 8 10 9 4 1 360 360 358 358 357 354 352 350 347 343 341 340 340
138 135 94 130 352 320 204 230 224 179 246 245 162 157 175 237 139 133 156 182 239 212 152 172 162 182 216 175 241 283 205 179 175 178 178 179 185 186 191 193 196 197 198 203 203 205 203 204 204 201 202 204 212 221 230 240 254 268 278 287 295 305 310 314 318 323 330 332 335 339 343 348 351 352 355 358 359 359 2 3 5 6 1 357 355 353 353 354 353 351 351 350 348 346 343 329 319
117 110 68 110 225 259 222 205 140 154 252 231 180 138 161 263 122 137 219 168 253 263 116 194 188 196 186 148 217 288 171 170 173 174 174 176 182 185 192 195 199 201 204 208 209 212 212 214 216 216 218 220 227 235 247 258 268 276 283 289 294 301 305 308 311 314 319 324 329 332 336 340 344 345 345 348 351 352 354 357 359 1 358 354 352 348 349 350 349 348 345 344 344 342 327 304 303
75 88 77 242 209 213 206 192 176 188 255 252 250 162 154 273 292 175 270 107 213 273 261 228 221 180 184 201 302 222 160 165 168 168 169 172 178 183 191 197 201 205 209 213 215 216 217 220 223 227 232 236 242 250 260 268 276 281 285 289 294 298 301 304 306 309 312 317 322 327 330 333 337 339 339 339 343 345 347 349 351 354 353 350 348 346 346 346 345 344 341 336 331 321 309 303 306
59 94 131 220 197 200 192 184 196 184 237 230 219 188 165 227 251 187 41 39 337 285 276 270 273 270 192 286 322 153 158 162 165 165 165 169 177 184 192 199 203 208 212 215 218 219 222 225 229 235 241 247 252 260 266 274 280 284 287 290 293 295 298 300 302 305 307 311 315 321 325 327 330 332 333 333 335 338 340 342 344 346 346 345 344 344 345 344 342 340 339 336 329 321 316 314 314
93 120 160 229 200 212 205 178 193 179 147 189 220 197 180 207 187 136 217 266 325 243 268 288 271 265 232 94 137 153 159 162 166 168 168 173 181 187 193 200 205 212 214 217 219 221 225 229 233 240 247 253 258 264 270 277 281 286 289 290 293 293 296 298 300 302 303 306 308 313 318 321 323 325 328 328 328 331 334 336 337 338 339 340 340 339 342 342 340 338 337 336 332 328 325 323 320
151 131 212 243 215 234 240 188 201 211 157 143 200 167 183 231 199 139 213 257 259 218 237 220 241 249 221 149 148 157 161 164 170 173 176 181 187 190 193 199 206 214 216 219 222 224 229 233 238 244 251 256 262 267 271 277 281 286 289 290 293 294 297 297 298 299 300 301 302 306 310 314 316 319 323 322 323 324 327 330 331 332 333 336 336 336 338 339 338 336 335 333 332 331 329 328 324
153 150 204 231 193 243 251 201 207 217 180 142 152 127 212 245 208 171 167 289 279 235 223 205 219 235 204 168 165 164 163 169 176 180 184 189 193 196 199 202 208 215 219 223 227 229 233 238 244 249 255 260 266 271 273 278 282 286 289 292 295 296 298 297 298 298 298 299 299 302 304 309 312 314 317 318 319 318 320 325 326 327 328 332 333 332 334 335 335 335 334 332 331 331 330 330 327
154 210 204 191 154 216 254 196 194 176 137 114 127 148 226 218 184 184 166 225 254 225 217 207 217 232 188 169 170 165 168 176 182 190 194 195 198 202 204 205 209 215 222 226 229 234 239 244 250 254 259 264 268 272 275 278 281 284 288 291 294 296 296 296 298 298 297 298 298 299 300 303 307 310 313 314 317 315 316 320 322 323 323 328 330 328 330 332 332 333 332 331 331 330 328 328 328
211 270 239 198 183 199 283 177 204 160 118 117 157 205 116 48 297 209 181 225 236 223 207 198 230 246 164 156 159 167 179 184 191 198 198 199 203 205 206 206 209 216 224 230 235 241 246 250 254 258 262 265 267 271 274 277 280 283 287 288 290 292 293 294 295 296 296 297 297 297 297 299 302 306 309 311 314 312 313 316 318 319 320 325 326 324 326 328 328 330 330 329 329 327 326 326 326
177 261 283 205 191 212 299 52 172 124 110 201 191 266 90 116 294 353 235 243 250 260 252 202 263 142 142 148 164 179 185 191 200 204 201 203 207 208 209 211 213 220 229 238 245 249 255 258 262 267 270 272 273 274 276 279 281 283 285 287 289 291 292 294 296 297 298 298 298 297 296 296 300 303 306 309 311 309 310 313 314 316 318 322 323 322 323 324 325 326 326 327 327 326 325 324 324
163 238 286 66 196 264 294 80 73 60 29 292 75 307 253 223 263 331 264 260 271 278 273 234 110 115 143 156 178 184 184 200 207 207 205 207 212 212 214 217 219 227 237 250 264 272 278 280 281 282 283 284 283 283 285 287 289 291 293 295 298 300 302 303 303 304 304 303 304 302 300 299 301 303 305 309 308 308 310 310 312 314 316 319 320 320 321 320 321 322 323 324 324 324 324 324 323
224 219 306 357 321 318 331 66 50 22 325 68 4 300 288 242 182 283 264 269 297 320 345 180 127 135 167 169 181 185 188 202 202 195 199 206 210 212 215 221 223 229 251 282 301 309 309 306 303 298 298 305 308 312 315 315 316 316 316 316 315 316 316 314 312 312 312 312 313 311 309 307 307 307 308 310 309 308 310 310 311 312 313 317 318 318 319 317 317 318 319 321 322 321 322 323 322
194 135 304 334 328 322 7 357 343 356 289 125 213 285 296 287 321 269 262 289 320 9 37 44 116 162 188 180 191 192 194 195 186 173 175 193 204 209 209 213 217 235 298 2 31 43 52 54 56 56 55 56 53 47 39 28 17 6 356 346 337 332 327 325 325 325 325 324 322 320 317 316 315 315 315 316 313 312 312 311 312 312 312 317 317 316 317 315 314 315 316 318 318 318 319 321 321
78 29 307 314 340 319 12 353 300 343 270 166 153 275 291 347 231 241 263 345 350 44 42 25 65 180 210 209 194 167 166 160 174 174 171 181 194 196 186 183 152 101 94 92 89 85 80 77 75 71 69 68 64 59 53 46 39 30 21 12 3 354 347 345 343 340 337 332 328 325 322 322 320 321 320 319 317 314 314 313 312 312 312 316 315 314 314 313 312 312 314 315 315 315 315 318 320
25 38 332 309 351 343 329 333 289 341 188 177 140 299 294 238 230 249 310 352 12 62 50 17 25 284 257 228 67 69 91 144 171 175 168 141 115 150 135 115 118 109 103 98 92 85 80 78 76 73 70 68 64 60 54 49 42 36 30 23 16 9 1 355 348 343 338 333 330 326 323 321 318 316 314 314 316 315 314 313 311 310 311 313 313 312 312 311 310 310 312 312 312 312 312 315 317
305 39 47 315 352 338 312 7 348 141 173 155 132 294 287 255 256 281 322 342 358 31 32 15 349 318 354 34 54 52 41 75 158 121 101 95 93 112 114 116 117 108 100 94 88 84 80 78 76 73 70 67 63 59 54 50 45 40 36 30 25 19 13 5 357 350 345 341 337 333 326 320 316 313 312 314 316 316 315 313 311 310 310 311 310 311 311 310 310 309 311 310 309 310 310 313 314
328 346 39 357 349 290 300 345 125 144 157 46 126 251 273 271 290 325 328 347 25 333 343 18 5 3 25 46 63 56 34 42 72 89 95 103 107 111 111 110 106 101 95 89 84 81 77 74 73 70 67 63 58 54 50 47 43 40 36 31 27 23 21 19 13 7 2 359 356 352 345 336 330 327 329 331 332 331 328 326 325 322 318 313 309 310 310 309 309 309 309 308 307 308 309 310 311
21 318 307 342 177 269 308 315 153 151 324 36 127 231 275 280 290 329 346 29 49 351 334 12 17 20 44 59 68 67 51 58 72 85 96 102 105 106 105 102 97 93 89 85 82 78 75 71 69 66 62 56 53 50 47 45 42 38 35 30 27 23 22 22 19 14 10 8 6 5 2 359 354 350 347 345 344 344 341 339 341 339 333 324 317 314 311 309 310 308 308 307 305 306 307 308 309
357 69 262 280 209 287 323 323 277 115 328 7 123 228 280 284 244 311 13 27 24 353 327 5 31 32 59 67 70 76 71 67 69 77 90 97 100 101 101 97 92 89 84 81 78 73 71 68 65 61 57 51 48 45 43 42 37 33 30 26 23 19 16 14 11 8 5 2 360 358 357 356 352 349 345 340 339 340 338 338 340 342 340 335 330 325 321 317 313 309 308 307 304 304 305 305 307
323 24 254 256 223 270 309 308 331 36 90 285 306 229 259 266 268 348 7 11 3 330 305 348 63 63 71 79 79 81 80 75 64 71 86 94 98 99 98 94 91 88 83 79 74 71 71 68 64 61 56 51 46 43 41 38 30 25 22 18 14 10 7 4 0 358 356 353 349 346 343 341 337 334 332 329 329 329 330 331 332 335 333 332 331 328 328 326 320 314 309 309 305 301 302 303 304
269 275 269 290 282 248 268 277 299 24 51 253 284 267 265 276 310 351 356 358 345 304 299 16 98 92 87 89 87 87 83 74 62 74 87 92 93 93 92 92 91 86 81 78 76 74 73 69 66 61 54 48 44 41 39 34 25 19 14 5 359 356 353 352 351 347 345 341 337 336 333 331 328 323 321 318 318 319 321 322 325 327 326 324 323 322 325 325 324 319 313 312 307 302 300 300 302
216 236 203 248 275 262 245 255 271 300 342 258 250 260 275 296 331 347 340 348 351 329 17 74 100 99 97 93 91 90 84 75 72 81 85 86 85 84 84 86 86 81 76 76 75 72 68 66 63 56 48 43 40 35 31 25 17 13 8 0 356 354 347 342 340 336 333 330 329 330 328 328 326 323 319 315 313 312 312 314 317 319 318 316 315 316 318 319 319 317 315 312 308 304 300 299 301
138 196 210 244 257 277 267 271 300 320 226 267 248 269 288 310 337 341 334 353 18 17 56 82 91 98 102 100 97 91 87 85 81 79 78 78 78 78 79 81 81 77 72 72 69 65 61 59 54 48 42 37 35 29 24 19 14 10 5 360 356 352 347 342 336 331 327 324 325 326 327 329 329 328 325 321 318 315 312 312 312 314 314 311 308 308 310 311 311 311 310 308 307 302 299 301 300
61 222 258 289 242 263 276 291 312 334 169 276 360 338 300 335 351 343 350 12 19 15 64 85 92 98 100 103 100 93 92 86 78 71 69 72 71 72 74 74 74 70 66 65 61 58 54 49 44 38 33 29 26 21 15 12 8 4 359 355 351 345 343 341 337 334 329 324 323 323 327 329 330 330 330 329 328 326 324 321 318 317 317 313 308 305 305 305 305 306 304 303 304 298 296 300 296
42 158 289 302 261 277 304 342 331 358 172 278 4 347 310 359 360 5 15 21 18 14 56 72 89 100 100 104 102 99 94 82 74 66 65 67 66 67 69 68 68 65 61 57 52 48 43 38 33 28 24 21 17 13 8 5 1 357 352 349 346 342 339 336 333 329 327 325 325 326 328 330 331 333 334 336 337 337 337 335 332 328 327 325 318 312 308 306 304 304 302 299 299 295 293 297 294
261 218 255 277 283 314 290 320 329 318 220 270 339 321 310 353 352 22 17 13 39 37 57 59 63 88 97 98 96 97 95 86 78 68 64 64 63 64 64 63 61 59 54 48 44 40 35 32 27 24 21 17 14 11 7 3 356 351 346 342 340 337 333 330 327 326 328 332 333 335 337 338 339 339 340 342 344 345 344 343 342 338 336 335 332 324 318 314 311 308 306 301 296 290 289 293 292
292 219 213 248 280 255 233 287 320 316 324 319 346 318 322 12 12 26 2 9 41 35 55 58 49 66 83 83 78 80 84 83 80 73 65 65 64 63 62 60 57 54 49 44 40 36 32 30 26 24 21 17 15 12 8 3 359 355 351 348 345 343 341 340 339 338 340 343 343 345 345 345 344 342 342 343 343 344 343 343 343 341 340 339 339 335 329 324 320 316 313 306 298 291 287 287 286
312 240 214 227 246 254 260 330 347 356 341 329 39 350 303 352 41 32 351 22 36 22 45 52 45 55 72 80 77 73 73 73 75 74 70 68 67 63 59 56 54 51 46 40 37 33 30 27 25 22 20 16 13 12 10 6 5 5 3 2 359 355 352 351 351 346 345 346 347 346 343 340 339 338 338 337 337 339 342 344 345 345 345 343 343 342 337 334 329 326 323 314 306 299 291 284 280
316 250 196 195 179 228 302 353 6 348 276 272 72 130 266 313 35 15 2 49 42 30 44 44 42 51 66 76 72 69 68 69 72 71 69 67 64 61 57 53 52 48 42 37 32 29 26 24 22 21 19 15 11 10 10 8 8 7 6 5 3 359 354 350 349 346 345 346 343 340 337 335 337 338 338 339 340 344 348 350 350 350 350 348 347 346 343 341 335 331 328 319 313 307 295 281 278
273 231 144 154 242 271 275 346 221 247 276 308 28 150 237 293 331 345 29 72 53 42 46 37 40 51 64 68 61 63 65 69 76 72 69 68 64 63 60 55 52 46 38 33 28 25 22 20 19 19 16 12 8 8 9 10 8 5 4 4 3 3 356 349 346 346 346 342 337 336 336 337 341 345 348 353 357 358 357 355 353 352 352 352 351 349 346 344 340 336 332 326 319 311 299 285 279
268 207 154 233 287 267 202 155 210 294 6 316 312 113 195 274 277 330 24 88 85 76 63 42 42 56 68 68 62 63 66 69 75 78 74 70 66 64 62 57 50 43 36 30 26 21 18 17 16 15 13 8 5 4 5 8 5 2 3 4 5 3 356 350 346 344 340 335 335 337 340 342 347 354 1 9 9 2 359 355 350 347 346 347 345 342 339 336 335 333 331 328 322 314 305 293 282
277 132 135 56 59 58 85 116 151 47 24 269 280 80 156 274 257 193 185 119 169 172 92 55 50 63 66 65 65 65 68 71 74 78 76 70 66 62 58 54 47 39 32 27 23 19 16 14 13 11 8 4 3 1 2 5 2 0 2 5 3 358 352 349 345 342 338 336 338 340 343 346 352 360 6 9 2 354 350 346 341 339 338 336 334 331 329 327 326 324 322 321 318 314 308 299 288
319 49 353 1 37 41 45 74 99 58 322 256 265 267 126 297 261 186 189 216 193 170 121 88 73 69 63 60 64 63 66 72 73 74 72 66 60 55 51 48 42 34 27 23 20 16 13 11 9 6 2 360 360 358 359 3 1 359 360 360 358 354 350 347 343 340 337 337 340 340 342 346 352 357 356 353 348 343 341 338 335 332 330 328 326 325 324 322 320 318 315 313 311 309 306 302 293
34 38 2 348 344 18 24 355 44 75 273 267 273 259 139 225 268 245 309 310 169 145 133 124 103 80 71 65 62 64 69 74 72 66 61 56 50 46 45 43 37 29 23 19 16 13 10 9 5 360 357 356 356 356 357 359 360 359 356 354 354 351 348 345 341 338 335 336 337 336 340 345 348 348 346 345 344 341 338 336 332 329 326 325 323 322 321 320 319 316 313 311 307 304 302 300 294
28 22 40 20 344 4 2 323 342 196 241 259 26 37 196 215 245 328 327 337 68 104 107 123 119 104 93 80 66 66 70 70 69 64 54 51 46 41 40 39 34 28 20 15 13 10 7 6 2 357 356 352 352 354 354 356 358 355 350 349 349 347 344 342 339 335 332 332 332 333 339 345 345 344 343 342 340 338 337 334 331 329 327 324 323 323 322 321 321 318 315 312 308 304 301 297 292
2 16 77 47 11 5 319 289 313 290 268 273 349 7 297 239 33 354 342 357 68 90 89 103 109 111 112 96 83 76 73 74 69 64 57 50 45 43 41 38 34 27 19 13 11 8 6 5 360 354 352 348 348 351 351 354 355 347 344 346 345 343 341 339 337 333 328 329 330 333 339 343 343 341 339 337 335 335 334 331 328 326 324 322 323 324 324 323 322 319 316 312 308 305 301 296 291
338 184 124 90 135 43 284 248 268 295 291 298 309 320 252 256 4 15 29 44 69 80 79 77 76 90 102 91 87 82 77 77 68 65 64 54 50 49 46 43 36 27 18 11 9 6 5 3 356 349 348 346 347 348 348 350 348 342 343 342 341 340 338 335 333 329 327 328 328 332 336 338 338 336 333 332 331 331 330 327 325 321 320 321 322 323 322 321 322 318 314 312 309 306 302 297 292
292 168 87 51 180 171 244 215 207 275 316 313 288 219 198 177 67 59 68 62 64 68 68 67 60 57 74 77 77 85 92 89 78 75 68 59 56 57 55 47 32 22 14 9 7 4 1 358 351 345 346 345 344 345 346 344 339 339 339 338 338 337 335 332 329 328 329 325 321 327 333 334 334 332 331 330 329 328 326 323 320 317 317 318 319 320 320 319 318 314 310 308 307 306 303 298 296
350 52 16 251 181 139 138 287 321 48 4 299 276 246 292 55 95 123 102 62 60 67 69 72 65 50 59 69 85 110 119 110 95 78 71 67 62 59 53 40 25 18 12 8 5 1 356 353 345 340 342 343 341 342 342 337 334 336 335 335 336 334 331 329 327 328 327 319 317 325 330 332 333 331 329 328 326 324 322 319 315 315 315 316 318 318 317 316 314 308 305 304 302 303 302 298 297
56 2 253 227 83 89 105 324 351 23 312 279 310 285 284 308 274 195 167 168 70 62 65 67 61 49 46 46 96 151 145 146 132 84 79 76 62 57 50 36 23 16 11 6 1 354 350 348 340 338 342 341 339 339 338 334 334 336 335 334 333 331 328 327 327 326 321 320 324 327 330 331 331 329 326 325 323 321 320 317 314 315 315 316 317 317 315 314 311 306 302 301 299 299 298 295 294
66 266 249 80 59 2 25 18 343 350 311 292 312 310 273 234 214 203 198 198 173 69 55 51 40 35 29 17 11 180 175 185 180 80 76 80 66 63 49 31 17 12 8 1 355 348 344 342 338 340 342 340 338 338 336 333 335 336 333 332 332 330 327 327 327 321 319 326 329 329 331 329 326 325 324 323 322 320 320 318 316 316 316 315 315 315 313 311 309 304 301 299 298 297 295 293 292
14 9 352 39 127 175 320 17 165 278 303 295 319 327 300 245 270 237 204 175 132 83 52 50 38 27 19 1 334 270 243 232 212 192 95 81 71 60 41 26 14 11 6 357 350 344 341 342 341 342 342 339 338 338 336 335 334 332 331 331 331 329 329 330 324 316 321 328 328 328 327 325 323 323 323 322 320 319 318 317 316 315 314 314 313 312 311 308 304 300 298 297 296 295 293 291 290
353 22 13 356 343 360 7 354 121 121 276 278 330 316 282 301 338 292 148 108 100 97 65 54 42 26 17 359 335 299 277 258 226 189 94 80 66 49 31 19 12 9 1 351 345 341 340 343 344 343 341 339 338 338 336 334 332 328 328 329 327 324 329 331 320 313 323 327 325 325 324 322 322 322 322 321 319 318 317 315 316 315 312 310 308 307 306 304 302 299 297 295 293 292 290 288 289
156 75 65 5 333 46 51 319 324 70 168 194 211 296 279 299 346 19 86 85 83 80 65 47 28 9 4 357 336 311 290 267 234 144 95 75 53 37 23 15 11 4 354 345 342 341 342 342 342 342 340 338 337 336 334 332 329 327 326 326 323 321 326 328 318 313 321 323 322 323 323 322 321 321 321 320 318 317 316 314 314 312 309 307 303 302 303 302 301 299 296 294 292 291 288 287 288